Location: San Antonio
(29.4240°N, 98.4930°W)
Time: 04:50:35
(UTC-05:00)

ISS - All Passes

Search period start: 22 August 2014 00:00
Search period end: 01 September 2014 00:00
Orbit: 413 x 419 km, 51.6° (Epoch: 22 August)

Date Brightness Start Highest point End Pass type
(mag) Time Alt. Az. Time Alt. Az. Time Alt. Az.
22 Aug - 12:47:33 10° SSE 12:49:15 13° SE 12:50:57 10° E daylight
22 Aug - 14:22:39 10° WSW 14:25:42 34° NW 14:28:46 10° NNE daylight
22 Aug - 20:57:10 10° N 20:58:56 14° NE 21:00:42 10° ENE visible
22 Aug - 22:32:38 10° WNW 22:35:50 45° SW 22:39:01 10° SSE visible
23 Aug - 13:33:50 10° SW 13:37:08 72° NW 13:40:27 10° NE daylight
23 Aug - 21:43:59 10° NW 21:47:19 81° NE 21:50:39 10° SE visible
24 Aug - 12:45:24 10° SSW 12:48:37 50° SE 12:51:50 10° NE daylight
24 Aug - 14:24:02 10° WNW 14:25:32 13° NW 14:27:03 10° N daylight
24 Aug - 20:55:36 10° NNW 20:58:44 38° NE 21:01:52 10° ESE visible
24 Aug - 22:33:46 10° W 22:35:09 12° SW 22:36:33 10° SSW visible
25 Aug - 11:57:24 10° S 12:00:07 24° SE 12:02:51 10° ENE daylight
25 Aug - 13:34:12 10° W 13:36:47 21° NW 13:39:23 10° NNE daylight
25 Aug - 20:07:27 10° NNW 20:10:03 21° NE 20:12:39 10° E daylight
25 Aug - 21:43:58 10° WNW 21:46:43 24° SW 21:49:28 10° S visible
26 Aug - 11:10:21 10° SSE 11:11:40 12° SE 11:13:00 10° E daylight
26 Aug - 12:44:58 10° WSW 12:48:05 38° NW 12:51:13 10° NNE daylight
26 Aug - 19:19:46 10° N 19:21:16 13° NE 19:22:47 10° ENE daylight
26 Aug - 20:54:57 10° NW 20:58:12 51° SW 21:01:26 10° SSE visible
27 Aug - 11:56:08 10° SW 11:59:27 82° NW 12:02:46 10° NE daylight
27 Aug - 20:06:17 10° NW 20:09:36 71° NE 20:12:55 10° SE daylight
28 Aug - 11:07:41 10° SSW 11:10:51 44° SE 11:14:01 10° ENE daylight
28 Aug - 12:45:58 10° WNW 12:47:43 14° NW 12:49:29 10° N daylight
28 Aug - 19:17:51 10° NNW 19:20:55 34° NE 19:23:59 10° ESE daylight
28 Aug - 20:55:37 10° W 20:57:22 14° SW 20:59:07 10° SSW visible
29 Aug - 10:19:42 10° S 10:22:17 21° SE 10:24:53 10° ENE daylight
29 Aug - 11:56:11 10° W 11:58:54 23° NW 12:01:37 10° NNE daylight
29 Aug - 18:29:41 10° N 18:32:08 19° NE 18:34:36 10° E daylight
29 Aug - 20:05:58 10° WNW 20:08:50 27° SW 20:11:42 10° S daylight
30 Aug - 09:33:03 10° SE 09:33:46 11° SE 09:34:28 10° ESE daylight
30 Aug - 11:06:57 10° WSW 11:10:08 43° NW 11:13:19 10° NNE daylight
30 Aug - 17:42:06 10° NNE 17:43:16 11° NE 17:44:25 10° NE daylight
30 Aug - 19:16:57 10° NW 19:20:14 59° SW 19:23:30 10° SSE daylight
31 Aug - 10:18:06 10° SW 10:21:25 87° SE 10:24:44 10° NE daylight
31 Aug - 18:28:15 10° NW 18:31:33 62° NE 18:34:49 10° SE daylight
